| time (UTC) | temp C | wind direction | speed KPH | gust KPH | rain 1hr cm | rain 24hr cm | rain mn cm | humidity % | barometer mb |
| 20260504173016 | 23 | 173 | 4.8 | 12.9 | 0.00 | 0.00 | 0.00 | 47 | 1010.4 |
| 20260504172016 | 23 | 171 | 3.2 | 12.9 | 0.00 | 0.00 | 0.00 | 46 | 1010.5 |
| 20260504171016 | 22 | 179 | 6.4 | 12.9 | 0.00 | 0.00 | 0.00 | 48 | 1010.5 |
| 20260504151018 | 17 | 285 | 0.0 | 3.2 | 0.00 | 0.00 | 0.00 | 63 | 1010.8 |
| 20260504141025 | 13 | 0.0 | 0.0 | 0.00 | 0.00 | 0.00 | 76 | 1010.5 | |
| 20260504081016 | 18 | 339 | 1.6 | 8.0 | 0.00 | 0.00 | 0.00 | 52 | 1009.5 |
| 20260504050019 | 20 | 0.0 | 0.0 | 0.00 | 0.00 | 0.00 | 49 | 1009.3 | |
| 20260504045039 | 20 | 0.0 | 0.0 | 0.00 | 0.00 | 0.00 | 47 | 1009.3 | |
| 20260504044018 | 21 | 311 | 0.0 | 3.2 | 0.00 | 0.00 | 0.00 | 44 | 1009.3 |
| 20260504043018 | 21 | 307 | 0.0 | 3.2 | 0.00 | 0.00 | 0.00 | 44 | 1009.3 |
| 20260504042019 | 21 | 298 | 1.6 | 3.2 | 0.00 | 0.00 | 0.00 | 44 | 1009.3 |
| 20260504041018 | 21 | 299 | 1.6 | 4.8 | 0.00 | 0.00 | 0.00 | 45 | 1009.2 |
| 20260504040019 | 21 | 325 | 1.6 | 3.2 | 0.00 | 0.00 | 0.00 | 45 | 1009.2 |
| 20260504035016 | 22 | 331 | 3.2 | 4.8 | 0.00 | 0.00 | 0.00 | 43 | 1009.1 |
| 20260504034056 | 23 | 310 | 0.0 | 1.6 | 0.00 | 0.00 | 0.00 | 38 | 1009.0 |
| 20260504033016 | 24 | 340 | 1.6 | 8.0 | 0.00 | 0.00 | 0.00 | 32 | 1008.9 |
| 20260504032016 | 24 | 304 | 1.6 | 4.8 | 0.00 | 0.00 | 0.00 | 32 | 1008.9 |
| 20260504031017 | 24 | 314 | 1.6 | 4.8 | 0.00 | 0.00 | 0.00 | 33 | 1009.0 |
| 20260504030017 | 25 | 282 | 0.0 | 3.2 | 0.00 | 0.00 | 0.00 | 31 | 1009.0 |
| 20260504025016 | 25 | 241 | 1.6 | 8.0 | 0.00 | 0.00 | 0.00 | 31 | 1009.1 |
| 20260504024018 | 25 | 330 | 1.6 | 4.8 | 0.00 | 0.00 | 0.00 | 31 | 1009.1 |
| 20260504023017 | 25 | 331 | 1.6 | 4.8 | 0.00 | 0.00 | 0.00 | 31 | 1009.1 |
| 20260504022017 | 25 | 341 | 1.6 | 4.8 | 0.00 | 0.00 | 0.00 | 34 | 1009.2 |
| 20260504021017 | 25 | 238 | 1.6 | 8.0 | 0.00 | 0.00 | 0.00 | 33 | 1009.2 |
| 20260504020018 | 26 | 321 | 1.6 | 6.4 | 0.00 | 0.00 | 0.00 | 32 | 1009.3 |
| 20260504015018 | 26 | 220 | 1.6 | 9.7 | 0.00 | 0.00 | 0.00 | 30 | 1009.3 |
| 20260504014017 | 27 | 222 | 1.6 | 8.0 | 0.00 | 0.00 | 0.00 | 30 | 1009.5 |
| 20260504013018 | 27 | 233 | 1.6 | 9.7 | 0.00 | 0.00 | 0.00 | 30 | 1009.6 |
| 20260504012018 | 27 | 203 | 3.2 | 9.7 | 0.00 | 0.00 | 0.00 | 29 | 1009.7 |
| 20260504011018 | 28 | 282 | 4.8 | 9.7 | 0.00 | 0.00 | 0.00 | 28 | 1009.7 |
| 20260504010015 | 28 | 219 | 6.4 | 16.1 | 0.00 | 0.00 | 0.00 | 28 | 1009.8 |
| 20260504005016 | 28 | 221 | 4.8 | 9.7 | 0.00 | 0.00 | 0.00 | 28 | 1009.9 |
| 20260504004016 | 28 | 247 | 3.2 | 9.7 | 0.00 | 0.00 | 0.00 | 28 | 1010.1 |
| 20260504003016 | 28 | 213 | 4.8 | 12.9 | 0.00 | 0.00 | 0.00 | 29 | 1010.2 |
| 20260504002016 | 28 | 244 | 4.8 | 11.3 | 0.00 | 0.00 | 0.00 | 28 | 1010.2 |
| 20260504001017 | 28 | 258 | 6.4 | 16.1 | 0.00 | 0.00 | 0.00 | 28 | 1010.4 |
| 20260504000017 | 28 | 260 | 4.8 | 12.9 | 0.00 | 0.00 | 0.00 | 28 | 1010.5 |
| 20260503235017 | 28 | 213 | 6.4 | 12.9 | 0.00 | 0.00 | 0.00 | 29 | 1010.5 |
| 20260503234017 | 28 | 211 | 8.0 | 14.5 | 0.00 | 0.00 | 0.00 | 30 | 1010.7 |
| 20260503233017 | 28 | 232 | 3.2 | 9.7 | 0.00 | 0.00 | 0.00 | 31 | 1010.8 |
| 20260503232037 | 28 | 218 | 3.2 | 9.7 | 0.00 | 0.00 | 0.00 | 30 | 1011.0 |
| 20260503231018 | 28 | 210 | 6.4 | 14.5 | 0.00 | 0.00 | 0.00 | 31 | 1011.1 |
| 20260503230038 | 28 | 206 | 8.0 | 16.1 | 0.00 | 0.00 | 0.00 | 32 | 1011.2 |
| 20260503225018 | 28 | 202 | 6.4 | 14.5 | 0.00 | 0.00 | 0.00 | 33 | 1011.3 |
| 20260503224019 | 28 | 200 | 4.8 | 9.7 | 0.00 | 0.00 | 0.00 | 34 | 1011.5 |
| 20260503223018 | 28 | 207 | 6.4 | 14.5 | 0.00 | 0.00 | 0.00 | 33 | 1011.6 |
| 20260503222018 | 28 | 251 | 4.8 | 11.3 | 0.00 | 0.00 | 0.00 | 33 | 1011.8 |
| 20260503221016 | 28 | 282 | 3.2 | 16.1 | 0.00 | 0.00 | 0.00 | 34 | 1011.9 |
| 20260503220016 | 28 | 206 | 4.8 | 11.3 | 0.00 | 0.00 | 0.00 | 34 | 1012.0 |
| 20260503215016 | 28 | 229 | 4.8 | 12.9 | 0.00 | 0.00 | 0.00 | 34 | 1012.1 |
| 20260503214016 | 27 | 192 | 4.8 | 12.9 | 0.00 | 0.00 | 0.00 | 36 | 1012.3 |
| 20260503213017 | 27 | 199 | 4.8 | 12.9 | 0.00 | 0.00 | 0.00 | 35 | 1012.4 |
| 20260503212057 | 27 | 302 | 4.8 | 12.9 | 0.00 | 0.00 | 0.00 | 36 | 1012.4 |
| 20260503211017 | 26 | 167 | 3.2 | 11.3 | 0.00 | 0.00 | 0.00 | 41 | 1012.5 |
| 20260503210057 | 26 | 196 | 6.4 | 14.5 | 0.00 | 0.00 | 0.00 | 43 | 1012.6 |
| 20260503205017 | 26 | 173 | 8.0 | 17.7 | 0.00 | 0.00 | 0.00 | 45 | 1012.8 |
| 20260503204017 | 26 | 168 | 6.4 | 12.9 | 0.00 | 0.00 | 0.00 | 44 | 1012.9 |
| 20260503203018 | 26 | 197 | 8.0 | 14.5 | 0.00 | 0.00 | 0.00 | 45 | 1013.0 |
| 20260503202037 | 26 | 186 | 8.0 | 17.7 | 0.00 | 0.00 | 0.00 | 45 | 1013.1 |
| 20260503201018 | 25 | 203 | 6.4 | 14.5 | 0.00 | 0.00 | 0.00 | 46 | 1013.3 |
| 20260503200018 | 25 | 187 | 6.4 | 19.3 | 0.00 | 0.00 | 0.00 | 45 | 1013.4 |
| 20260503195018 | 25 | 210 | 6.4 | 12.9 | 0.00 | 0.00 | 0.00 | 44 | 1013.5 |
| 20260503194018 | 25 | 206 | 4.8 | 11.3 | 0.00 | 0.00 | 0.00 | 43 | 1013.7 |
| 20260503193018 | 24 | 191 | 6.4 | 14.5 | 0.00 | 0.00 | 0.00 | 44 | 1013.8 |
| 20260503192016 | 24 | 193 | 6.4 | 14.5 | 0.00 | 0.00 | 0.00 | 44 | 1013.9 |
| 20260503191016 | 23 | 186 | 9.7 | 16.1 | 0.00 | 0.00 | 0.00 | 46 | 1014.0 |
| 20260503190015 | 23 | 225 | 4.8 | 11.3 | 0.00 | 0.00 | 0.00 | 45 | 1014.1 |
| 20260503185016 | 23 | 214 | 6.4 | 11.3 | 0.00 | 0.00 | 0.00 | 45 | 1014.2 |
| 20260503184016 | 23 | 203 | 4.8 | 12.9 | 0.00 | 0.00 | 0.00 | 45 | 1014.2 |
| 20260503183017 | 23 | 221 | 9.7 | 12.9 | 0.00 | 0.00 | 0.00 | 45 | 1014.3 |
| 20260503182017 | 23 | 190 | 8.0 | 16.1 | 0.00 | 0.00 | 0.00 | 43 | 1014.4 |
| 20260503181042 | 23 | 190 | 8.0 | 14.5 | 0.00 | 0.00 | 0.00 | 44 | 1014.4 |
| 20260503175017 | 22 | 130 | 4.8 | 12.9 | 0.00 | 0.00 | 0.00 | 45 | 1014.5 |
| 20260503174017 | 22 | 165 | 3.2 | 8.0 | 0.00 | 0.00 | 0.00 | 41 | 1014.6 |